• In Netherlands
  • List of Countries
  • For 7 days
  • Water Temperature
  • Satellite Maps
  • Weather Map
  • Weather Widgets
  • user-avatar
    Login

    Hourly Weather Ashtarak

    Today, 22 January, Sunday

    Time Temperature Precipitation Wind Pressure Humidity
    00:00 -13°C° 0 mm 1 mps 655 mmHg 90%
    01:00 -13°C° 0 mm 1 mps 655 mmHg 90%
    02:00 -13°C° 0 mm 1 mps 655 mmHg 89%
    03:00 -12°C° 0 mm 1 mps 655 mmHg 90%
    04:00 -12°C° 0 mm 1 mps 655 mmHg 90%
    05:00 -12°C° 0 mm 1 mps 656 mmHg 89%
    06:00 -11°C° 0 mm 1 mps 656 mmHg 89%
    07:00 -10°C° 0 mm 1 mps 656 mmHg 88%
    08:00 -8°C° 0 mm 1 mps 657 mmHg 87%
    09:00 -6°C° 0 mm 1 mps 658 mmHg 85%
    10:00 -3°C° 0 mm 1 mps 658 mmHg 84%
    11:00 -2°C° 0 mm 1 mps 658 mmHg 83%
    12:00 -1°C° 0 mm 1 mps 658 mmHg 82%
    13:00 -1°C° 0 mm 1 mps 658 mmHg 83%
    14:00 -1°C° 0 mm 1 mps 658 mmHg 84%
    15:00 0°C° 0 mm 1 mps 657 mmHg 86%
    16:00 -3°C° 0 mm 1 mps 657 mmHg 88%
    17:00 -7°C° 0 mm 1 mps 657 mmHg 89%
    18:00 -9°C° 0 mm 1 mps 657 mmHg 90%
    19:00 -10°C° 0 mm 1 mps 657 mmHg 90%
    20:00 -10°C° 0 mm 1 mps 657 mmHg 89%
    21:00 -11°C° 0 mm 1 mps 658 mmHg 89%
    22:00 -11°C° 0 mm 1 mps 658 mmHg 89%
    23:00 -11°C° 0 mm 1 mps 658 mmHg 89%

    Tomorrow, 23 January, Monday

    Time Temperature Precipitation Wind Pressure Humidity
    00:00 -12°C° 0 mm 1 mps 658 mmHg 89%
    01:00 -12°C° 0 mm 1 mps 659 mmHg 89%
    02:00 -12°C° 0 mm 1 mps 659 mmHg 89%
    03:00 -12°C° 0 mm 1 mps 659 mmHg 89%
    04:00 -12°C° 0 mm 1 mps 659 mmHg 89%
    05:00 -13°C° 0 mm 1 mps 659 mmHg 89%
    06:00 -13°C° 0 mm 1 mps 659 mmHg 89%
    07:00 -10°C° 0 mm 1 mps 660 mmHg 87%
    08:00 -8°C° 0 mm 1 mps 661 mmHg 86%
    09:00 -4°C° 0 mm 1 mps 662 mmHg 84%
    10:00 -3°C° 0 mm 1 mps 662 mmHg 83%
    11:00 -1°C° 0 mm 1 mps 662 mmHg 82%
    12:00 0°C° 0 mm 1 mps 662 mmHg 81%
    13:00 0°C° 0 mm 1 mps 662 mmHg 82%
    14:00 +1°C° 0 mm 1 mps 662 mmHg 83%
    15:00 +1°C° 0 mm 1 mps 661 mmHg 84%
    16:00 -3°C° 0 mm 1 mps 660 mmHg 86%
    17:00 -8°C° 0 mm 1 mps 659 mmHg 89%
    18:00 -11°C° 0 mm 1 mps 658 mmHg 91%
    19:00 -12°C° 0 mm 1 mps 658 mmHg 91%
    20:00 -12°C° 0 mm 1 mps 658 mmHg 90%
    21:00 -12°C° 0 mm 1 mps 658 mmHg 90%
    22:00 -13°C° 0 mm 1 mps 659 mmHg 89%
    23:00 -13°C° 0 mm 1 mps 659 mmHg 89%

    Day after tomorrow, 24 January, Tuesday

    Time Temperature Precipitation Wind Pressure Humidity
    00:00 -13°C° 0 mm 1 mps 659 mmHg 89%
    01:00 -14°C° 0 mm 1 mps 659 mmHg 89%
    02:00 -14°C° 0 mm 1 mps 659 mmHg 89%
    03:00 -14°C° 0 mm 1 mps 659 mmHg 89%
    04:00 -15°C° 0 mm 1 mps 658 mmHg 89%
    05:00 -15°C° 0 mm 1 mps 658 mmHg 89%
    06:00 -15°C° 0 mm 1 mps 658 mmHg 88%
    07:00 -12°C° 0 mm 1 mps 660 mmHg 87%
    08:00 -8°C° 0 mm 1 mps 661 mmHg 85%
    09:00 -4°C° 0 mm 1 mps 662 mmHg 84%
    10:00 -2°C° 0 mm 1 mps 662 mmHg 83%
    11:00 -1°C° 0 mm 1 mps 662 mmHg 82%
    12:00 +1°C° 0 mm 1 mps 662 mmHg 81%
    13:00 +1°C° 0 mm 1 mps 662 mmHg 82%
    14:00 +1°C° 0 mm 1 mps 661 mmHg 83%
    15:00 +1°C° 0 mm 1 mps 661 mmHg 84%
    16:00 -2°C° 0 mm 1 mps 660 mmHg 86%
    17:00 -7°C° 0 mm 1 mps 659 mmHg 88%
    18:00 -10°C° 0 mm 1 mps 658 mmHg 90%
    19:00 -11°C° 0 mm 1 mps 657 mmHg 90%
    20:00 -11°C° 0 mm 1 mps 657 mmHg 90%
    21:00 -12°C° 0 mm 1 mps 657 mmHg 90%
    22:00 -12°C° 0 mm 1 mps 657 mmHg 89%
    23:00 -12°C° 0 mm 1 mps 657 mmHg 88%

    25 January, Wednesday

    Time Temperature Precipitation Wind Pressure Humidity
    00:00 -12°C° 0 mm 1 mps 657 mmHg 87%
    01:00 -11°C° 0 mm 1 mps 657 mmHg 86%
    02:00 -11°C° 0 mm 1 mps 656 mmHg 85%
    03:00 -10°C° 0 mm 1 mps 656 mmHg 84%
    04:00 -10°C° 0 mm 1 mps 656 mmHg 83%
    05:00 -10°C° 0 mm 1 mps 655 mmHg 82%
    06:00 -10°C° 0 mm 1 mps 655 mmHg 81%
    07:00 -8°C° 0 mm 1 mps 655 mmHg 81%
    08:00 -6°C° 0 mm 1 mps 656 mmHg 80%
    09:00 -3°C° 0 mm 1 mps 657 mmHg 79%
    10:00 -3°C° 0 mm 2 mps 656 mmHg 78%
    11:00 -2°C° 0 mm 2 mps 656 mmHg 78%
    12:00 -1°C° 0 mm 2 mps 655 mmHg 77%
    13:00 -1°C° 0 mm 2 mps 655 mmHg 79%
    14:00 -1°C° 0 mm 2 mps 654 mmHg 81%
    15:00 -1°C° 0 mm 3 mps 654 mmHg 83%
    16:00 -2°C° 0.1 mm 2 mps 654 mmHg 84%
    17:00 -3°C° 0.1 mm 2 mps 654 mmHg 86%
    18:00 -4°C° 0.1 mm 2 mps 653 mmHg 88%
    19:00 -4°C° 0.2 mm 2 mps 653 mmHg 88%
    20:00 -4°C° 0.2 mm 2 mps 653 mmHg 88%
    21:00 -4°C° 0.2 mm 2 mps 653 mmHg 89%
    22:00 -3°C° 0.3 mm 2 mps 653 mmHg 89%
    23:00 -3°C° 0.3 mm 2 mps 653 mmHg 90%

    26 January, Thursday

    Time Temperature Precipitation Wind Pressure Humidity
    00:00 -3°C° 0.3 mm 2 mps 653 mmHg 90%
    01:00 -3°C° 0.3 mm 2 mps 653 mmHg 90%
    02:00 -3°C° 0.3 mm 2 mps 653 mmHg 90%
    03:00 -3°C° 0.3 mm 2 mps 652 mmHg 90%
    04:00 -3°C° 0.3 mm 2 mps 652 mmHg 91%
    05:00 -3°C° 0.3 mm 2 mps 652 mmHg 91%
    06:00 -3°C° 0.3 mm 2 mps 652 mmHg 91%
    07:00 -3°C° 0.3 mm 2 mps 652 mmHg 90%
    08:00 -2°C° 0.3 mm 2 mps 652 mmHg 89%
    09:00 -2°C° 0.3 mm 2 mps 652 mmHg 89%
    10:00 -1°C° 0.3 mm 2 mps 652 mmHg 88%
    11:00 -1°C° 0.3 mm 2 mps 651 mmHg 87%
    12:00 +1°C° 0.3 mm 2 mps 651 mmHg 86%
    13:00 +1°C° 0.4 mm 2 mps 651 mmHg 87%
    14:00 +1°C° 0.4 mm 2 mps 651 mmHg 87%
    15:00 +1°C° 0.4 mm 2 mps 650 mmHg 88%
    16:00 -1°C° 0.2 mm 2 mps 650 mmHg 89%
    17:00 0°C° 0.2 mm 1 mps 650 mmHg 91%
    18:00 -1°C° 0.2 mm 1 mps 651 mmHg 92%
    19:00 -1°C° 0.3 mm 1 mps 651 mmHg 92%
    20:00 -1°C° 0.3 mm 1 mps 651 mmHg 92%
    21:00 -2°C° 0.3 mm 1 mps 651 mmHg 92%
    22:00 -2°C° 0.3 mm 1 mps 651 mmHg 92%
    23:00 -2°C° 0.3 mm 1 mps 651 mmHg 92%

    27 January, Friday

    Time Temperature Precipitation Wind Pressure Humidity
    00:00 -2°C° 0.3 mm 1 mps 651 mmHg 92%
    01:00 -2°C° 0.3 mm 1 mps 652 mmHg 92%
    02:00 -2°C° 0.3 mm 1 mps 652 mmHg 91%
    03:00 -2°C° 0.3 mm 1 mps 652 mmHg 91%
    04:00 -2°C° 0.3 mm 1 mps 652 mmHg 91%
    05:00 -3°C° 0.3 mm 1 mps 652 mmHg 90%
    06:00 -3°C° 0.3 mm 1 mps 652 mmHg 90%
    07:00 -3°C° 0.4 mm 1 mps 653 mmHg 89%
    08:00 -2°C° 0.4 mm 1 mps 653 mmHg 88%
    09:00 -2°C° 0.4 mm 1 mps 654 mmHg 87%
    10:00 -2°C° 0.4 mm 1 mps 654 mmHg 86%
    11:00 -1°C° 0.4 mm 1 mps 653 mmHg 85%
    12:00 0°C° 0.4 mm 1 mps 653 mmHg 84%
    13:00 0°C° 0.3 mm 1 mps 653 mmHg 84%
    14:00 0°C° 0.3 mm 1 mps 653 mmHg 85%
    15:00 0°C° 0.3 mm 1 mps 652 mmHg 85%
    16:00 -1°C° 0.3 mm 1 mps 652 mmHg 87%
    17:00 -2°C° 0.3 mm 1 mps 652 mmHg 89%
    18:00 -3°C° 0.3 mm 1 mps 653 mmHg 90%
    19:00 -3°C° 0.4 mm 1 mps 653 mmHg 91%
    20:00 -4°C° 0.4 mm 1 mps 653 mmHg 91%
    21:00 -6°C° 0.4 mm 2 mps 653 mmHg 91%
    22:00 -6°C° 0.3 mm 2 mps 653 mmHg 91%
    23:00 -6°C° 0.3 mm 2 mps 653 mmHg 91%
    Show more